Location: Treviso
(45.6669°N, 12.2430°E)
Time: 04:56:14
(UTC+02:00)

CUBESAT XI-V - Pass Details

Date: 28 April 2019
Orbit: 668 x 694 km, 98.0° (Epoch: 19 May)

Event Time Altitude Azimuth Distance (km) Brightness Sun altitude
Exits shadow 04:33:51 23° 227° (SW) 1,445 ? -14.5°
Maximum altitude 04:35:37 30° 265° (W) 1,230 ? -14.3°
Drops below altitude 10° 04:39:44 10° 326° (NW) 2,136 ? -13.7°
Sets 04:42:14 0° 337° (NNW) 3,052 ? -13.3°
